When you browse on this site, cookies collect data to enhance your experience and personalize the content and advertising you see.
Visit our Privacy Policy to learn more. By continuing to use the site, you agree to this use of cookies and data.
  • In France
  • List of Countries
  • For 7 days
  • Water Temperature
  • Satellite Maps
  • Weather Map
  • Weather Widgets
  • user-avatar
    Login

    Hourly Weather Lowech

    Today, 22 May, Wednesday

    Time Temperature Precipitation Wind Pressure Humidity
    00:00 +14°C° 0 mm 2 mps 735 mmHg 72%
    01:00 +14°C° 0 mm 2 mps 735 mmHg 71%
    02:00 +13°C° 0 mm 2 mps 735 mmHg 70%
    03:00 +13°C° 0 mm 2 mps 735 mmHg 70%
    04:00 +13°C° 0 mm 2 mps 735 mmHg 71%
    05:00 +13°C° 0 mm 2 mps 735 mmHg 71%
    06:00 +15°C° 0 mm 2 mps 735 mmHg 67%
    07:00 +18°C° 0 mm 1 mps 735 mmHg 63%
    08:00 +20°C° 0 mm 1 mps 736 mmHg 60%
    09:00 +21°C° 0 mm 1 mps 735 mmHg 57%
    10:00 +21°C° 0 mm 2 mps 735 mmHg 54%
    11:00 +23°C° 0 mm 2 mps 735 mmHg 50%
    12:00 +24°C° 0 mm 2 mps 735 mmHg 51%
    13:00 +24°C° 0 mm 2 mps 735 mmHg 51%
    14:00 +25°C° 0 mm 2 mps 735 mmHg 51%
    15:00 +24°C° 0 mm 2 mps 734 mmHg 53%
    16:00 +24°C° 0 mm 1 mps 734 mmHg 55%
    17:00 +24°C° 0 mm 1 mps 734 mmHg 57%
    18:00 +22°C° 0.1 mm 1 mps 734 mmHg 62%
    19:00 +20°C° 0.1 mm 1 mps 734 mmHg 67%
    20:00 +19°C° 0.1 mm 1 mps 734 mmHg 72%
    21:00 +18°C° 0 mm 1 mps 734 mmHg 73%
    22:00 +16°C° 0 mm 1 mps 734 mmHg 73%
    23:00 +16°C° 0 mm 2 mps 734 mmHg 74%

    Tomorrow, 23 May, Thursday

    Time Temperature Precipitation Wind Pressure Humidity
    00:00 +15°C° 0 mm 2 mps 734 mmHg 75%
    01:00 +15°C° 0 mm 2 mps 734 mmHg 77%
    02:00 +14°C° 0 mm 2 mps 734 mmHg 78%
    03:00 +14°C° 0 mm 2 mps 734 mmHg 80%
    04:00 +14°C° 0 mm 2 mps 734 mmHg 82%
    05:00 +14°C° 0 mm 2 mps 734 mmHg 84%
    06:00 +14°C° 0 mm 3 mps 734 mmHg 81%
    07:00 +17°C° 0 mm 3 mps 734 mmHg 78%
    08:00 +18°C° 0 mm 4 mps 735 mmHg 76%
    09:00 +19°C° 0 mm 4 mps 735 mmHg 72%
    10:00 +20°C° 0 mm 5 mps 735 mmHg 69%
    11:00 +21°C° 0 mm 5 mps 735 mmHg 65%
    12:00 +21°C° 0 mm 5 mps 734 mmHg 64%
    13:00 +22°C° 0 mm 5 mps 734 mmHg 64%
    14:00 +22°C° 0 mm 5 mps 734 mmHg 63%
    15:00 +22°C° 0 mm 5 mps 733 mmHg 64%
    16:00 +21°C° 0 mm 4 mps 733 mmHg 66%
    17:00 +21°C° 0 mm 4 mps 733 mmHg 68%
    18:00 +19°C° 0.1 mm 3 mps 733 mmHg 73%
    19:00 +18°C° 0.1 mm 2 mps 733 mmHg 78%
    20:00 +16°C° 0.1 mm 1 mps 733 mmHg 83%
    21:00 +16°C° 0 mm 1 mps 733 mmHg 83%
    22:00 +16°C° 0 mm 1 mps 733 mmHg 83%
    23:00 +15°C° 0 mm 1 mps 733 mmHg 83%

    Day after tomorrow, 24 May, Friday

    Time Temperature Precipitation Wind Pressure Humidity
    00:00 +15°C° 0 mm 1 mps 733 mmHg 84%
    01:00 +15°C° 0 mm 2 mps 733 mmHg 86%
    02:00 +14°C° 0 mm 2 mps 733 mmHg 87%
    03:00 +14°C° 0 mm 2 mps 733 mmHg 87%
    04:00 +14°C° 0 mm 2 mps 732 mmHg 86%
    05:00 +14°C° 0 mm 2 mps 732 mmHg 86%
    06:00 +14°C° 0 mm 3 mps 732 mmHg 83%
    07:00 +16°C° 0 mm 3 mps 733 mmHg 81%
    08:00 +17°C° 0 mm 4 mps 733 mmHg 79%
    09:00 +18°C° 0 mm 4 mps 733 mmHg 75%
    10:00 +19°C° 0 mm 4 mps 733 mmHg 72%
    11:00 +20°C° 0 mm 4 mps 732 mmHg 69%
    12:00 +20°C° 0.3 mm 4 mps 732 mmHg 70%
    13:00 +20°C° 0.3 mm 4 mps 732 mmHg 71%
    14:00 +20°C° 0.3 mm 4 mps 731 mmHg 72%
    15:00 +20°C° 0.3 mm 4 mps 731 mmHg 73%
    16:00 +20°C° 0.3 mm 4 mps 731 mmHg 75%
    17:00 +20°C° 0.3 mm 4 mps 731 mmHg 76%
    18:00 +18°C° 0.2 mm 4 mps 731 mmHg 80%
    19:00 +17°C° 0.2 mm 3 mps 731 mmHg 85%
    20:00 +14°C° 0.2 mm 3 mps 731 mmHg 89%
    21:00 +14°C° 0 mm 3 mps 731 mmHg 89%
    22:00 +13°C° 0 mm 3 mps 732 mmHg 88%
    23:00 +13°C° 0 mm 3 mps 732 mmHg 88%

    25 May, Saturday

    Time Temperature Precipitation Wind Pressure Humidity
    00:00 +13°C° 0 mm 3 mps 732 mmHg 86%
    01:00 +13°C° 0 mm 3 mps 732 mmHg 85%
    02:00 +13°C° 0 mm 3 mps 732 mmHg 83%
    03:00 +12°C° 0 mm 3 mps 732 mmHg 82%
    04:00 +12°C° 0 mm 3 mps 732 mmHg 81%
    05:00 +12°C° 0 mm 3 mps 732 mmHg 80%
    06:00 +14°C° 0 mm 4 mps 733 mmHg 78%
    07:00 +15°C° 0 mm 5 mps 733 mmHg 76%
    08:00 +16°C° 0 mm 6 mps 734 mmHg 74%
    09:00 +17°C° 0 mm 6 mps 734 mmHg 72%
    10:00 +19°C° 0 mm 6 mps 734 mmHg 69%
    11:00 +20°C° 0 mm 6 mps 734 mmHg 67%
    12:00 +21°C° 0.3 mm 6 mps 734 mmHg 66%
    13:00 +21°C° 0.3 mm 6 mps 734 mmHg 65%
    14:00 +22°C° 0.3 mm 6 mps 734 mmHg 65%
    15:00 +22°C° 0.2 mm 5 mps 734 mmHg 65%
    16:00 +22°C° 0.2 mm 5 mps 733 mmHg 66%
    17:00 +22°C° 0.2 mm 5 mps 733 mmHg 67%
    18:00 +20°C° 0 mm 4 mps 734 mmHg 73%
    19:00 +18°C° 0 mm 3 mps 734 mmHg 78%
    20:00 +17°C° 0 mm 2 mps 734 mmHg 84%
    21:00 +16°C° 0 mm 2 mps 735 mmHg 85%
    22:00 +16°C° 0 mm 2 mps 735 mmHg 85%
    23:00 +15°C° 0 mm 2 mps 735 mmHg 86%

    26 May, Sunday

    Time Temperature Precipitation Wind Pressure Humidity
    00:00 +15°C° 0 mm 2 mps 735 mmHg 86%
    01:00 +15°C° 0 mm 2 mps 735 mmHg 86%
    02:00 +14°C° 0 mm 2 mps 735 mmHg 87%
    03:00 +14°C° 0 mm 2 mps 736 mmHg 86%
    04:00 +14°C° 0 mm 2 mps 736 mmHg 85%
    05:00 +14°C° 0 mm 2 mps 736 mmHg 84%
    06:00 +16°C° 0 mm 2 mps 736 mmHg 77%
    07:00 +18°C° 0 mm 2 mps 736 mmHg 70%
    08:00 +20°C° 0 mm 2 mps 736 mmHg 63%
    09:00 +21°C° 0 mm 2 mps 736 mmHg 58%
    10:00 +23°C° 0 mm 2 mps 736 mmHg 54%
    11:00 +24°C° 0 mm 2 mps 736 mmHg 50%
    12:00 +25°C° 0 mm 2 mps 736 mmHg 48%
    13:00 +25°C° 0 mm 2 mps 735 mmHg 47%
    14:00 +26°C° 0 mm 2 mps 735 mmHg 46%
    15:00 +26°C° 0 mm 1 mps 735 mmHg 50%
    16:00 +25°C° 0 mm 1 mps 735 mmHg 53%
    17:00 +25°C° 0 mm 1 mps 734 mmHg 57%
    18:00 +23°C° 0 mm 1 mps 734 mmHg 61%
    19:00 +21°C° 0 mm 1 mps 734 mmHg 65%
    20:00 +18°C° 0 mm 0 mps 734 mmHg 69%
    21:00 +19°C° 0 mm 1 mps 735 mmHg 70%
    22:00 +19°C° 0 mm 1 mps 735 mmHg 70%
    23:00 +18°C° 0 mm 2 mps 735 mmHg 71%

    27 May, Monday

    Time Temperature Precipitation Wind Pressure Humidity
    00:00 +18°C° 0 mm 2 mps 735 mmHg 70%
    01:00 +17°C° 0 mm 2 mps 735 mmHg 70%
    02:00 +17°C° 0 mm 2 mps 735 mmHg 69%
    03:00 +17°C° 0 mm 2 mps 735 mmHg 69%
    04:00 +16°C° 0 mm 2 mps 735 mmHg 69%
    05:00 +16°C° 0 mm 2 mps 735 mmHg 70%
    06:00 +18°C° 0 mm 2 mps 735 mmHg 69%
    07:00 +19°C° 0 mm 2 mps 736 mmHg 68%
    08:00 +21°C° 0 mm 2 mps 736 mmHg 67%
    09:00 +23°C° 0 mm 2 mps 736 mmHg 63%
    10:00 +24°C° 0 mm 2 mps 736 mmHg 60%
    11:00 +25°C° 0 mm 3 mps 736 mmHg 56%
    12:00 +26°C° 0.1 mm 2 mps 736 mmHg 55%
    13:00 +26°C° 0.1 mm 2 mps 736 mmHg 54%
    14:00 +27°C° 0.1 mm 2 mps 736 mmHg 53%
    15:00 +27°C° 0.2 mm 1 mps 736 mmHg 54%
    16:00 +27°C° 0.2 mm 1 mps 736 mmHg 55%
    17:00 +26°C° 0.2 mm 1 mps 735 mmHg 56%
    18:00 +24°C° 0.1 mm 1 mps 735 mmHg 62%
    19:00 +23°C° 0.1 mm 1 mps 735 mmHg 68%
    20:00 +21°C° 0.1 mm 1 mps 736 mmHg 75%
    21:00 +20°C° 0 mm 1 mps 736 mmHg 76%
    22:00 +18°C° 0 mm 2 mps 736 mmHg 77%
    23:00 +18°C° 0 mm 2 mps 736 mmHg 78%
    Show more